Regional Weather Roundup
Issued by NWS

Home | Current Version | Previous Version | Graphics & Text | Print | Product List | Glossary On
Versions: 1 2 3 4 5 6 7 8 9 10 11 12 13 14 15 16 17 18 19 20 21 22 23 24 25 26 27 28 29 30 31 32 33 34 35 36 37 38 39 40 41 42 43 44 45 46 47 48 49 50
000
ASUS43 KDMX 272207
RWRIA

WEATHER ROUNDUP FOR IOWA
NATIONAL WEATHER SERVICE DES MOINES IA
500 PM CDT MON JUL 27 2015

NOTE: "FAIR" INDICATES FEW OR NO CLOUDS BELOW 12,000 FEET WITH NO
SIGNIFICANT WEATHER AND/OR OBSTRUCTIONS TO VISIBILITY.

* - THESE STATIONS ARE NOT NWS STATIONS...THUS NOT UNDER NWS
QUALITY CONTROL.  THEY ALSO DO NOT REPORT WEATHER SUCH
AS PRECIPITATION OR FOG.

IAZ001>003-012>014-020>022-031>034-043>046-272300-
   NORTHWEST IOWA

CITY           SKY/WX    TMP DP  RH WIND       PRES   REMARKS
CARROLL *      SUNNY     79  72  78 SE12      29.89F HX  82
CHEROKEE *       N/A     84  75  74 S15G24    29.85F HX  92
DENISON *      SUNNY     79  72  78 SE12G22   29.86F HX  82
LE MARS *      SUNNY     84  75  74 SE18G25   29.84F HX  92
ORANGE CITY *  SUNNY     84  72  65 S15       29.85F HX  89
SHELDON *      SUNNY     84  73  70 S15       29.84F HX  91
SIOUX CITY       N/A     86  75  69 SE14      29.82F HX  95
SPENCER          N/A     86  70  58 S8        29.86F HX  90
STORM LAKE *   SUNNY     82  72  69 S17G23    29.88F HX  87
$$

IAZ055>058-069>071-079>083-090>094-272300-
   SOUTHWEST IOWA

CITY           SKY/WX    TMP DP  RH WIND       PRES   REMARKS
ATLANTIC *     SUNNY     81  72  74 E16       29.89F HX  84
AUDUBON *      SUNNY     81  72  74 SE15      29.91F HX  84
CLARINDA *     MOSUNNY   88  79  74 SE9       29.89S HX 102
COUNCIL BLFS * MOSUNNY   84  77  79 E15       29.87F HX  94
CRESTON *      MOSUNNY   73  68  83 E17G29    29.94S
HARLAN  *      SUNNY     81  79  94 E12       29.92F HX  89
LAMONI         PTSUNNY   77  71  82 E10G21    29.95S
RED OAK *      SUNNY     84  73  70 E13       29.87F HX  91
SHENANDOAH *   SUNNY     88  79  74 SE9       29.86F HX 102
$$

IAZ047>049-059>061-072>074-084-272300-
   CENTRAL IOWA

CITY           SKY/WX    TMP DP  RH WIND       PRES   REMARKS
AMES           LGT RAIN  72  68  87 S13       29.93S
ANKENY *       LGT RAIN  70  68  94 SE15G21   29.94F
CHARITON *     HVY RAIN  72  70  94 NE15G22   29.96F VSB 1/2
DES MOINES     LGT RAIN  73  68  84 E10       29.95F
GRINNELL*        N/A     72  70  94 SE5       29.96F
KNOXVILLE *    LGT RAIN  73  70  88 CALM      29.99F
MARSHALLTOWN   PTSUNNY   71  69  93 E9        29.92F
PELLA *        LGT RAIN  72  72 100 W3        30.00R
PERRY *          N/A     77  70  78 SE13G20   29.92F
$$

IAZ004>006-015-016-023>025-035-036-272300-
   NORTH CENTRAL IOWA

CITY           SKY/WX    TMP DP  RH WIND       PRES   REMARKS
ALGONA *       SUNNY     82  70  65 E8        29.89S HX  86
CLARION *      SUNNY     75  70  83 SE14G21   29.88F
ESTHERVILLE      N/A     82  68  62 SE12      29.87F HX  85
FORT DODGE *     N/A     75  66  73 S10G18    29.86F
MASON CITY       N/A     76  73  91 SE16      29.93S
FOREST CITY *  SUNNY     79  70  73 SE9G18    29.90F HX  81
IOWA FALLS *     N/A     73  68  83 E10       29.92F
$$

IAZ007>011-017>019-026>030-037>042-050>054-066-272300-
   NORTHEAST IOWA

CITY           SKY/WX    TMP DP  RH WIND       PRES   REMARKS
CEDAR RAPIDS   LGT RAIN  81  75  82 CALM      29.96F HX  87
CHARLES CITY * PTSUNNY   81  75  83 SE12      29.94F HX  86
CLINTON *        N/A     82  72  69 E6        29.99F HX  87
DECORAH *      SUNNY     81  72  74 S8        29.96F HX  84
DUBUQUE          N/A     83  69  62 SE6       29.99F HX  86
MONTICELLO *   SUNNY     82  73  74 E5        29.97F HX  88
OELWEIN *      PTSUNNY   81  73  78 SE10      29.97F HX  85
WATERLOO         N/A     81  73  76 S9        29.93F HX  86
$$

IAZ064-065-067-068-078-272300-
   EAST CENTRAL IOWA

CITY           SKY/WX    TMP DP  RH WIND       PRES   REMARKS
DAVENPORT        N/A     83  71  67 E9        29.96F HX  87
IOWA CITY        N/A     82  71  69 E3        29.97F HX  86
MT. PLEASANT *   N/A     82  72  69 NE3       29.97R HX  87
MUSCATINE *    SUNNY     84  72  65 E5        29.95F HX  89
QUAD CITIES      N/A     84  71  65 SE8       29.94F HX  89
$$

IAZ062-063-075>077-085>089-095>099-272300-
   SOUTHEAST IOWA

CITY           SKY/WX    TMP DP  RH WIND       PRES   REMARKS
BURLINGTON       N/A     83  75  77 E6        29.94F HX  90
FAIRFIELD *    PTSUNNY   79  73  83 NE6       29.98R HX  82
FORT MADISON * SUNNY     81  77  89 CALM      29.95R HX  88
KEOKUK *       SUNNY     82  77  83 NE7       29.92S HX  91
OSKALOOSA *    LGT RAIN  70  68  94 CALM      29.99R
CENTERVILLE *  LGT RAIN  72  72 100 NE10G20   29.99F
OTTUMWA        RAIN      71  69  93 NW7       29.97R
WASHINGTON *   SUNNY     81  75  83 CALM      29.98R HX  86
$$

ABBREVIATIONS USED IN REMARKS
   TC - TEMPERATURES IN CELSIUS
  WCI - WIND CHILL INDEX
   HX - HEAT INDEX
  VSB - VISIBILITY
$$




USA.gov is the U.S. government's official web portal to all federal, state and local government web resources and services.